Date String (YYYY-MM-DD hh:mm:ss) UTC,Instrument flags,Ambient pressure (hPa),Sample flow (lpm),Bypass flow (lpm),Sample temperature (°C),Ambient temperature (°C),ASC tube jacket temperature (°C),LED temperature (°C),Box temperature (°C),Sample RH (%),Span deviation,Mass concentration (μg/m³),Mass concentration (μg/m³),Mass concentration (μg/m³)
DateTimeUTC,F1_M11,P_M11,Q1_M11,Q2_M11,T1_M11,T2_M11,T3_M11,T4_M11,T5_M11,U1_M11,ZSPAN_M11,X0_M11,X2_M11,X1_M11
2021-10-18 16:00:00,,0822.1,4.99,0.00,29.9,29.1,00.0,39.0,31.7,10.7,0000.0,0010.57,0004.02,0003.26
2021-10-18 16:01:00,,0822.1,4.98,0.00,29.9,29.1,00.0,39.0,31.7,10.9,0000.0,0010.60,0004.01,0003.25
2021-10-18 16:02:00,,0822.1,5.00,0.00,30.0,29.1,00.0,39.0,31.7,11.2,0000.0,0010.41,0004.01,0003.24
2021-10-18 16:03:00,,0822.2,5.00,0.00,30.0,29.1,00.0,39.0,31.7,11.2,0000.0,0010.57,0004.02,0003.24
2021-10-18 16:04:00,,0822.2,5.01,0.00,30.0,29.1,00.0,39.1,31.7,11.2,0000.0,0010.58,0004.00,0003.23
2021-10-18 16:05:00,,0822.2,5.00,0.00,30.0,29.1,00.0,39.1,31.7,11.2,0000.0,0010.50,0003.97,0003.21
2021-10-18 16:06:00,,0822.2,4.99,0.00,30.0,29.1,00.0,39.1,31.7,11.5,0000.0,0010.04,0003.99,0003.20
2021-10-18 16:07:00,,0822.2,5.01,0.00,30.0,29.1,00.0,39.1,31.8,11.6,0000.0,0010.16,0003.97,0003.20
2021-10-18 16:08:00,,0822.2,4.99,0.00,30.0,29.1,00.0,39.1,31.7,11.4,0000.0,0010.24,0003.99,0003.19
2021-10-18 16:09:00,,0822.2,5.02,0.00,30.0,29.1,00.0,39.1,31.8,11.2,0000.0,0009.98,0004.03,0003.20
2021-10-18 16:10:00,,0822.2,5.00,0.00,30.0,29.1,00.0,39.1,31.8,11.5,0000.0,0010.60,0004.15,0003.19
2021-10-18 16:11:00,,0822.1,5.00,0.00,30.0,29.1,00.0,39.1,31.7,11.7,0000.0,0010.91,0004.20,0003.17
2021-10-18 16:12:00,,0822.1,4.99,0.00,30.0,29.1,00.0,39.1,31.7,11.7,0000.0,0012.17,0004.30,0003.16
2021-10-18 16:13:00,,0822.1,4.99,0.00,30.0,29.1,00.0,39.1,31.7,11.7,0000.0,0013.32,0004.40,0003.15
2021-10-18 16:14:00,,0822.1,4.98,0.00,30.0,29.1,00.0,39.1,31.7,11.7,0000.0,0014.38,0004.44,0003.15
2021-10-18 16:15:00,,0822.1,5.00,0.00,30.0,29.1,00.0,39.1,31.7,11.7,0000.0,0014.81,0004.53,0003.16
2021-10-18 16:16:00,,0822.1,4.99,0.00,30.0,29.1,00.0,39.1,31.7,11.7,0000.0,0014.61,0004.61,0003.17
2021-10-18 16:17:00,,0822.1,5.01,0.00,30.0,29.2,00.0,39.1,31.7,11.9,0000.0,0015.76,0004.67,0003.19
2021-10-18 16:18:00,,0822.0,4.99,0.00,30.0,29.2,00.0,39.1,31.7,11.5,0000.0,0016.04,0004.76,0003.22
2021-10-18 16:19:00,,0822.0,5.01,0.00,30.0,29.2,00.0,39.1,31.8,11.6,0000.0,0016.79,0004.84,0003.28
2021-10-18 16:20:00,,0822.0,4.99,0.00,30.0,29.2,00.0,39.1,31.8,11.6,0000.0,0017.30,0004.88,0003.34
2021-10-18 16:21:00,,0821.9,5.00,0.00,30.1,29.2,00.0,39.1,31.8,11.5,0000.0,0017.06,0004.88,0003.41
2021-10-18 16:22:00,,0822.0,5.01,0.00,30.1,29.2,00.0,39.1,31.8,11.4,0000.0,0017.37,0004.96,0003.51
2021-10-18 16:23:00,,0822.0,5.00,0.00,30.1,29.3,00.0,39.1,31.9,11.4,0000.0,0016.46,0005.00,0003.59
2021-10-18 16:24:00,,0822.0,5.00,0.00,30.1,29.3,00.0,39.1,31.9,11.3,0000.0,0015.43,0005.04,0003.70
2021-10-18 16:25:00,,0822.1,5.01,0.00,30.1,29.3,00.0,39.2,31.9,11.0,0000.0,0014.18,0005.13,0003.86
2021-10-18 16:26:00,,0822.1,5.01,0.00,30.1,29.3,00.0,39.2,31.9,10.9,0000.0,0014.42,0005.26,0004.02
2021-10-18 16:27:00,,0822.1,4.99,0.00,30.2,29.4,00.0,39.2,31.9,10.9,0000.3,0014.79,0005.41,0004.18
2021-10-18 16:28:00,,0822.1,5.01,0.00,30.2,29.4,00.0,39.2,31.9,10.8,0003.4,0014.50,0005.61,0004.36
2021-10-18 16:29:00,,0822.1,5.01,0.00,30.2,29.4,00.0,39.2,32.0,10.8,0004.2,0014.37,0005.72,0004.50
2021-10-18 16:30:00,,0822.1,5.01,0.00,30.2,29.4,00.0,39.2,32.0,10.8,0004.5,0014.52,0005.84,0004.64
2021-10-18 16:31:00,,0822.1,4.99,0.00,30.2,29.5,00.0,39.2,32.0,10.8,0003.8,0015.15,0006.00,0004.77
2021-10-18 16:32:00,,0822.1,5.01,0.00,30.2,29.5,00.0,39.2,32.0,10.8,0003.8,0016.16,0006.11,0004.90
2021-10-18 16:33:00,,0822.1,4.99,0.00,30.3,29.5,00.0,39.3,32.0,10.8,0004.9,0016.22,0006.16,0004.98
2021-10-18 16:34:00,,0822.0,5.01,0.00,30.3,29.5,00.0,39.3,32.0,10.7,0005.4,0016.22,0006.17,0005.07
2021-10-18 16:35:00,,0822.0,5.00,0.00,30.3,29.6,00.0,39.3,32.1,10.8,0005.4,0016.25,0006.23,0005.16
2021-10-18 16:36:00,,0822.0,4.99,0.00,30.3,29.6,00.0,39.3,32.1,11.0,0004.9,0016.55,0006.27,0005.16
2021-10-18 16:37:00,,0822.0,5.00,0.00,30.4,29.6,00.0,39.3,32.1,10.8,0004.9,0016.14,0006.28,0005.16
2021-10-18 16:38:00,,0822.0,5.00,0.00,30.4,29.6,00.0,39.4,32.2,10.7,0005.4,0015.79,0006.27,0005.20
2021-10-18 16:39:00,,0822.0,4.99,0.00,30.4,29.7,00.0,39.4,32.1,10.8,0005.5,0015.63,0006.23,0005.24
2021-10-18 16:40:00,,0822.0,5.00,0.00,30.4,29.7,00.0,39.4,32.1,10.7,0004.1,0016.02,0006.32,0005.28
2021-10-18 16:41:00,,0822.0,5.00,0.00,30.4,29.7,00.0,39.4,32.2,10.5,0003.7,0015.92,0006.43,0005.38
2021-10-18 16:42:00,,0822.0,4.99,0.00,30.5,29.7,00.0,39.4,32.2,10.3,0004.3,0015.12,0006.52,0005.49
2021-10-18 16:43:00,,0821.9,5.00,0.00,30.5,29.7,00.0,39.4,32.3,10.4,0004.2,0014.25,0006.59,0005.60
2021-10-18 16:44:00,,0821.9,5.01,0.00,30.5,29.7,00.0,39.5,32.3,10.4,0004.4,0013.34,0006.69,0005.71
2021-10-18 16:45:00,,0821.9,5.00,0.00,30.5,29.8,00.0,39.5,32.3,10.4,0003.9,0013.46,0006.88,0005.88
2021-10-18 16:46:00,,0821.9,5.01,0.00,30.5,29.8,00.0,39.5,32.3,10.5,0003.3,0014.03,0007.11,0006.05
2021-10-18 16:47:00,,0822.0,4.99,0.00,30.6,29.8,00.0,39.5,32.3,10.6,0003.2,0014.68,0007.26,0006.23
2021-10-18 16:48:00,,0822.0,5.01,0.00,30.6,29.8,00.0,39.5,32.4,10.7,0002.6,0015.76,0007.37,0006.37
2021-10-18 16:49:00,,0822.1,4.99,0.00,30.6,29.9,00.0,39.6,32.4,10.9,0002.5,0016.39,0007.45,0006.45
2021-10-18 16:50:00,,0822.0,5.01,0.00,30.6,29.9,00.0,39.6,32.4,11.0,0002.3,0016.39,0007.57,0006.53
2021-10-18 16:51:00,,0822.1,4.99,0.00,30.7,29.9,00.0,39.6,32.4,11.1,0005.3,0015.66,0007.55,0006.58
2021-10-18 16:52:00,,0821.8,5.02,0.00,30.7,29.9,00.0,39.6,32.4,11.3,0010.1,0015.55,0007.49,0006.55
2021-10-18 16:53:00,,0821.8,5.00,0.00,30.7,29.9,00.0,39.6,32.4,11.3,0008.8,0015.51,0007.39,0006.48
2021-10-18 16:54:00,,0821.8,4.99,0.00,30.7,29.9,00.0,39.7,32.5,11.3,0011.8,0016.00,0007.34,0006.41
2021-10-18 16:55:00,,0821.8,4.99,0.00,30.7,29.9,00.0,39.7,32.5,11.4,0011.9,0016.54,0007.25,0006.32
2021-10-18 16:56:00,,0821.9,5.00,0.00,30.8,30.0,00.0,39.7,32.5,11.4,0006.5,0016.23,0007.10,0006.18
2021-10-18 16:57:00,,0821.9,4.99,0.00,30.8,30.0,00.0,39.7,32.5,11.3,-000.5,0016.27,0006.95,0006.05
2021-10-18 16:58:00,,0821.8,4.99,0.00,30.8,30.0,00.0,39.7,32.5,11.3,-000.3,0015.80,0006.83,0005.92
2021-10-18 16:59:00,,0821.8,5.00,0.00,30.8,30.0,00.0,39.8,32.5,11.4,-000.8,0015.01,0006.75,0005.83
